QPF
0.00 0.00 0.00 0.00 0.00 0.00 0.00 0.00 0.00 0.00 0.00 0.00 0.00 0.00 0.00 0.00 0.00 0.00 0.00 0.00 0.00 0.00 0.00 0.00 0.01 0.01 0.01 0.01 0.01 0.01 0.01 0.00 0.00 0.00 0.00 0.00 0.01 0.01 0.01 0.00 0.00 0.00 0.00 0.00 0.00 0.00 0.00 0.00 0.00
0.00 0.00 0.00 0.00 0.00 0.00 0.00 0.00 0.00 0.00 0.00 0.00 0.00 0.00 0.00 0.00 0.00 0.00 0.00 0.00 0.00 0.00 0.00 0.00 0.01 0.01 0.01 0.01 0.01 0.00 0.00 0.00 0.00 0.00 0.00 0.00 0.00 0.00 0.00 0.00 0.00 0.00 0.00 0.00 0.00 0.00 0.00 0.00 0.00
0.00 0.00 0.00 0.00 0.00 0.00 0.00 0.00 0.00 0.00 0.00 0.00 0.00 0.00 0.00 0.00 0.00 0.00 0.00 0.00 0.00 0.00 0.00 0.00 0.01 0.01 0.01 0.01 0.01 0.00 0.00 0.00 0.00 0.00 0.00 0.00 0.00 0.00 0.00 0.00 0.00 0.00 0.00 0.00 0.00 0.00 0.00 0.00 0.00
0.00 0.00 0.00 0.00 0.00 0.00 0.00 0.00 0.00 0.00 0.00 0.00 0.00 0.00 0.00 0.00 0.00 0.00 0.00 0.00 0.00 0.00 0.00 0.00 0.00 0.01 0.01 0.01 0.00 0.00 0.00 0.00 0.00 0.00 0.00 0.00 0.00 0.00 0.00 0.00 0.00 0.00 0.00 0.00 0.00 0.00 0.00 0.00 0.00
0.00 0.00 0.00 0.00 0.00 0.00 0.00 0.00 0.00 0.00 0.00 0.00 0.00 0.00 0.00 0.00 0.00 0.00 0.00 0.00 0.00 0.00 0.00 0.00 0.00 0.00 0.00 0.00 0.00 0.00 0.00 0.00 0.00 0.00 0.00 0.00 0.00 0.00 0.00 0.00 0.00 0.00 0.00 0.00 0.00 0.00 0.00 0.00 0.00
0.00 0.00 0.00 0.00 0.00 0.00 0.00 0.00 0.00 0.00 0.00 0.00 0.00 0.00 0.00 0.00 0.00 0.00 0.00 0.00 0.00 0.00 0.00 0.00 0.00 0.00 0.00 0.00 0.00 0.00 0.00 0.00 0.00 0.00 0.00 0.00 0.00 0.00 0.00 0.00 0.00 0.00 0.00 0.00 0.00 0.00 0.00 0.00 0.00
0.00 0.00 0.00 0.00 0.00 0.00 0.00 0.00 0.00 0.00 0.00 0.00 0.00 0.00 0.00 0.00 0.00 0.00 0.00 0.00 0.00 0.00 0.00 0.00 0.00 0.00 0.00 0.00 0.00 0.00 0.00 0.00 0.00 0.00 0.00 0.00 0.00 0.00 0.00 0.00 0.00 0.00 0.00 0.00 0.00 0.00 0.00 0.00 0.00
0.00 0.00 0.00 0.00 0.00 0.00 0.00 0.00 0.00 0.00 0.00 0.00 0.00 0.00 0.00 0.00 0.00 0.00 0.00 0.00 0.00 0.00 0.00 0.00 0.00 0.00 0.00 0.00 0.00 0.00 0.00 0.00 0.00 0.00 0.00 0.00 0.00 0.00 0.00 0.00 0.00 0.00 0.00 0.00 0.00 0.00 0.00 0.00 0.00
0.00 0.00 0.00 0.00 0.00 0.00 0.00 0.00 0.00 0.00 0.00 0.00 0.00 0.00 0.00 0.00 0.00 0.00 0.00 0.00 0.00 0.00 0.00 0.00 0.00 0.00 0.00 0.00 0.00 0.00 0.00 0.00 0.00 0.00 0.00 0.00 0.00 0.00 0.00 0.00 0.00 0.00 0.00 0.00 0.00 0.00 0.00 0.00 0.00
0.00 0.00 0.00 0.00 0.00 0.00 0.00 0.00 0.00 0.00 0.00 0.00 0.00 0.00 0.00 0.00 0.00 0.00 0.00 0.00 0.00 0.00 0.00 0.00 0.00 0.00 0.00 0.00 0.00 0.00 0.00 0.00 0.00 0.00 0.00 0.00 0.00 0.00 0.00 0.00 0.00 0.00 0.00 0.00 0.00 0.00 0.00 0.00 0.00
0.00 0.00 0.00 0.00 0.00 0.00 0.00 0.00 0.00 0.00 0.00 0.00 0.00 0.00 0.00 0.00 0.00 0.00 0.00 0.00 0.00 0.00 0.00 0.00 0.00 0.00 0.00 0.00 0.00 0.00 0.00 0.00 0.00 0.00 0.00 0.00 0.00 0.00 0.00 0.00 0.00 0.00 0.00 0.00 0.00 0.00 0.00 0.00 0.00
0.00 0.00 0.00 0.00 0.00 0.00 0.00 0.00 0.00 0.00 0.00 0.00 0.00 0.00 0.00 0.00 0.00 0.00 0.00 0.00 0.00 0.00 0.00 0.00 0.00 0.00 0.00 0.00 0.00 0.00 0.00 0.00 0.00 0.00 0.00 0.00 0.00 0.00 0.00 0.00 0.00 0.00 0.00 0.00 0.00 0.00 0.00 0.00 0.00
0.00 0.00 0.00 0.00 0.00 0.00 0.00 0.00 0.00 0.00 0.00 0.00 0.00 0.00 0.00 0.00 0.00 0.00 0.00 0.00 0.00 0.00 0.00 0.00 0.00 0.00 0.00 0.00 0.00 0.00 0.00 0.00 0.00 0.00 0.00 0.00 0.00 0.00 0.00 0.00 0.00 0.00 0.00 0.00 0.00 0.00 0.00 0.00 0.00
0.00 0.00 0.00 0.00 0.00 0.00 0.00 0.00 0.00 0.00 0.00 0.00 0.00 0.00 0.00 0.00 0.00 0.00 0.00 0.00 0.00 0.00 0.00 0.00 0.00 0.00 0.00 0.00 0.00 0.00 0.00 0.00 0.00 0.00 0.00 0.00 0.00 0.00 0.00 0.00 0.00 0.00 0.00 0.00 0.00 0.00 0.00 0.00 0.00
0.00 0.00 0.00 0.00 0.00 0.00 0.00 0.00 0.00 0.00 0.00 0.00 0.00 0.00 0.00 0.00 0.00 0.00 0.00 0.00 0.00 0.00 0.00 0.00 0.00 0.00 0.00 0.00 0.00 0.00 0.00 0.00 0.00 0.00 0.00 0.00 0.00 0.00 0.00 0.00 0.00 0.00 0.00 0.00 0.00 0.00 0.00 0.00 0.00
0.00 0.00 0.00 0.00 0.00 0.00 0.00 0.00 0.00 0.00 0.00 0.00 0.00 0.00 0.00 0.00 0.00 0.00 0.00 0.00 0.00 0.00 0.00 0.00 0.00 0.00 0.00 0.00 0.00 0.00 0.00 0.00 0.00 0.00 0.00 0.00 0.00 0.00 0.00 0.00 0.00 0.00 0.00 0.00 0.00 0.00 0.00 0.00 0.00
0.00 0.00 0.00 0.00 0.00 0.00 0.00 0.00 0.00 0.00 0.00 0.00 0.00 0.00 0.00 0.00 0.00 0.00 0.00 0.00 0.00 0.00 0.00 0.00 0.00 0.00 0.00 0.00 0.00 0.00 0.00 0.00 0.00 0.00 0.00 0.00 0.00 0.00 0.00 0.00 0.00 0.00 0.00 0.00 0.00 0.00 0.00 0.00 0.00
0.00 0.00 0.00 0.00 0.00 0.00 0.00 0.00 0.00 0.00 0.00 0.00 0.00 0.00 0.00 0.00 0.00 0.00 0.00 0.00 0.00 0.00 0.00 0.00 0.00 0.00 0.00 0.00 0.00 0.00 0.00 0.00 0.00 0.00 0.00 0.00 0.00 0.00 0.00 0.00 0.00 0.00 0.00 0.00 0.00 0.00 0.00 0.00 0.00
0.00 0.00 0.00 0.00 0.00 0.00 0.00 0.00 0.00 0.00 0.00 0.00 0.00 0.00 0.00 0.00 0.00 0.00 0.00 0.00 0.00 0.00 0.00 0.00 0.00 0.00 0.00 0.00 0.00 0.00 0.00 0.00 0.00 0.00 0.00 0.00 0.00 0.00 0.00 0.00 0.00 0.00 0.00 0.00 0.00 0.00 0.00 0.00 0.00
0.00 0.00 0.00 0.00 0.00 0.00 0.00 0.00 0.00 0.00 0.00 0.00 0.00 0.00 0.00 0.00 0.00 0.00 0.00 0.00 0.00 0.00 0.00 0.00 0.00 0.00 0.00 0.00 0.00 0.00 0.00 0.00 0.00 0.00 0.00 0.00 0.00 0.00 0.00 0.00 0.00 0.00 0.00 0.00 0.00 0.00 0.00 0.00 0.00
0.00 0.00 0.00 0.00 0.00 0.00 0.00 0.00 0.00 0.00 0.00 0.00 0.00 0.00 0.00 0.00 0.00 0.00 0.00 0.00 0.00 0.00 0.00 0.00 0.00 0.00 0.00 0.00 0.00 0.00 0.00 0.00 0.00 0.00 0.00 0.00 0.00 0.00 0.00 0.00 0.00 0.00 0.00 0.00 0.00 0.00 0.00 0.00 0.00
0.00 0.00 0.00 0.00 0.00 0.00 0.00 0.00 0.00 0.00 0.00 0.00 0.00 0.00 0.00 0.00 0.00 0.00 0.00 0.00 0.00 0.00 0.00 0.00 0.00 0.00 0.00 0.00 0.00 0.00 0.00 0.00 0.00 0.00 0.00 0.00 0.00 0.00 0.00 0.00 0.00 0.00 0.00 0.00 0.00 0.00 0.00 0.00 0.00
0.00 0.00 0.00 0.00 0.00 0.00 0.00 0.00 0.00 0.00 0.00 0.00 0.00 0.00 0.00 0.00 0.00 0.00 0.00 0.00 0.00 0.00 0.00 0.00 0.00 0.00 0.00 0.00 0.00 0.00 0.00 0.00 0.00 0.00 0.00 0.00 0.00 0.00 0.00 0.00 0.00 0.00 0.00 0.00 0.00 0.00 0.00 0.00 0.00
0.00 0.00 0.01 0.00 0.01 0.01 0.00 0.00 0.00 0.00 0.00 0.00 0.00 0.00 0.00 0.00 0.00 0.00 0.00 0.00 0.00 0.00 0.00 0.00 0.00 0.00 0.00 0.00 0.00 0.00 0.00 0.00 0.00 0.00 0.00 0.00 0.00 0.00 0.00 0.00 0.00 0.00 0.00 0.00 0.00 0.00 0.00 0.00 0.00
0.01 0.01 0.03 0.03 0.02 0.01 0.00 0.00 0.00 0.00 0.00 0.00 0.00 0.00 0.00 0.00 0.00 0.00 0.00 0.00 0.00 0.00 0.00 0.00 0.00 0.00 0.00 0.00 0.00 0.00 0.00 0.00 0.00 0.00 0.00 0.00 0.00 0.00 0.00 0.00 0.00 0.00 0.00 0.00 0.00 0.00 0.00 0.00 0.00
0.00 0.01 0.02 0.02 0.01 0.00 0.00 0.00 0.00 0.00 0.00 0.00 0.00 0.00 0.00 0.00 0.00 0.00 0.00 0.00 0.00 0.00 0.00 0.00 0.00 0.00 0.00 0.00 0.00 0.00 0.00 0.00 0.00 0.00 0.00 0.00 0.00 0.00 0.00 0.00 0.00 0.00 0.00 0.00 0.00 0.00 0.00 0.00 0.00
0.01 0.01 0.00 0.00 0.00 0.00 0.00 0.00 0.00 0.00 0.00 0.00 0.00 0.00 0.00 0.00 0.00 0.00 0.00 0.00 0.00 0.00 0.00 0.00 0.00 0.00 0.00 0.00 0.00 0.00 0.00 0.00 0.00 0.00 0.00 0.00 0.00 0.00 0.00 0.00 0.00 0.00 0.00 0.00 0.00 0.00 0.00 0.00 0.00
0.01 0.01 0.01 0.02 0.02 0.00 0.00 0.00 0.00 0.00 0.00 0.00 0.00 0.00 0.00 0.00 0.00 0.00 0.00 0.00 0.00 0.00 0.00 0.00 0.00 0.00 0.00 0.00 0.00 0.00 0.00 0.00 0.00 0.00 0.00 0.00 0.00 0.00 0.00 0.00 0.00 0.00 0.00 0.00 0.00 0.00 0.00 0.00 0.00
0.01 0.01 0.02 0.02 0.01 0.00 0.00 0.00 0.00 0.00 0.00 0.00 0.00 0.00 0.00 0.00 0.00 0.00 0.00 0.00 0.00 0.00 0.00 0.00 0.00 0.00 0.00 0.00 0.00 0.00 0.00 0.00 0.00 0.00 0.00 0.00 0.00 0.00 0.00 0.00 0.00 0.00 0.00 0.00 0.00 0.00 0.00 0.00 0.00
0.01 0.01 0.01 0.02 0.01 0.00 0.00 0.00 0.00 0.00 0.00 0.00 0.00 0.00 0.00 0.00 0.00 0.00 0.00 0.00 0.00 0.00 0.00 0.00 0.00 0.00 0.00 0.00 0.00 0.00 0.00 0.00 0.00 0.00 0.00 0.00 0.00 0.00 0.00 0.00 0.00 0.00 0.00 0.00 0.00 0.00 0.00 0.00 0.00
MSLP
1012.65 1013.38 1014.28 1015.19 1015.95 1016.42 1016.54 1016.32 1015.82 1015.19 1014.58 1014.15 1013.97 1014.08 1014.41 1014.88 1015.36 1015.73 1015.95 1015.99 1015.93 1015.83 1015.80 1015.91 1016.20 1016.65 1017.20 1017.76 1018.25 1018.62 1018.84 1018.92 1018.93 1018.92 1018.95 1019.05 1019.22 1019.44 1019.67 1019.86 1020.00 1020.07 1020.08 1020.05 1020.01 1019.97 1019.96 1019.96 1019.97
1013.04 1013.91 1014.86 1015.72 1016.33 1016.61 1016.49 1016.04 1015.34 1014.57 1013.89 1013.45 1013.29 1013.45 1013.84 1014.35 1014.87 1015.27 1015.51 1015.58 1015.56 1015.52 1015.55 1015.73 1016.09 1016.60 1017.20 1017.80 1018.33 1018.72 1018.98 1019.11 1019.17 1019.20 1019.27 1019.40 1019.58 1019.80 1020.02 1020.21 1020.34 1020.40 1020.41 1020.38 1020.35 1020.32 1020.30 1020.30 1020.32
1013.55 1014.49 1015.42 1016.17 1016.61 1016.66 1016.32 1015.66 1014.82 1013.97 1013.27 1012.85 1012.76 1012.98 1013.43 1013.98 1014.52 1014.93 1015.18 1015.28 1015.29 1015.31 1015.41 1015.65 1016.07 1016.63 1017.25 1017.87 1018.41 1018.83 1019.11 1019.28 1019.37 1019.46 1019.56 1019.71 1019.91 1020.12 1020.32 1020.48 1020.58 1020.63 1020.63 1020.61 1020.58 1020.56 1020.56 1020.58 1020.61
1014.10 1015.05 1015.90 1016.49 1016.73 1016.56 1016.02 1015.22 1014.29 1013.42 1012.77 1012.42 1012.42 1012.71 1013.21 1013.79 1014.33 1014.74 1014.99 1015.11 1015.16 1015.22 1015.38 1015.69 1016.15 1016.73 1017.36 1017.97 1018.50 1018.91 1019.20 1019.39 1019.52 1019.65 1019.79 1019.97 1020.17 1020.37 1020.55 1020.68 1020.75 1020.78 1020.77 1020.75 1020.74 1020.74 1020.76 1020.80 1020.85
1014.62 1015.51 1016.22 1016.62 1016.65 1016.28 1015.59 1014.69 1013.76 1012.95 1012.39 1012.17 1012.27 1012.64 1013.18 1013.77 1014.29 1014.68 1014.92 1015.05 1015.13 1015.25 1015.47 1015.82 1016.31 1016.89 1017.50 1018.07 1018.56 1018.94 1019.22 1019.42 1019.59 1019.76 1019.94 1020.15 1020.37 1020.57 1020.73 1020.83 1020.88 1020.89 1020.88 1020.86 1020.86 1020.89 1020.93 1020.99 1021.05
1015.02 1015.79 1016.31 1016.50 1016.32 1015.79 1015.00 1014.09 1013.21 1012.53 1012.12 1012.05 1012.27 1012.72 1013.29 1013.87 1014.35 1014.70 1014.93 1015.06 1015.18 1015.35 1015.62 1016.01 1016.51 1017.08 1017.64 1018.15 1018.58 1018.91 1019.17 1019.38 1019.58 1019.80 1020.04 1020.29 1020.54 1020.75 1020.90 1020.99 1021.01 1021.01 1020.98 1020.97 1020.98 1021.02 1021.08 1021.16 1021.23
1015.24 1015.84 1016.15 1016.13 1015.76 1015.11 1014.28 1013.41 1012.65 1012.13 1011.91 1012.00 1012.35 1012.87 1013.45 1014.00 1014.44 1014.75 1014.95 1015.09 1015.24 1015.45 1015.77 1016.20 1016.71 1017.24 1017.75 1018.19 1018.55 1018.83 1019.07 1019.29 1019.53 1019.80 1020.10 1020.41 1020.70 1020.93 1021.08 1021.16 1021.17 1021.14 1021.11 1021.09 1021.11 1021.16 1021.23 1021.31 1021.37
1015.27 1015.67 1015.77 1015.54 1015.02 1014.29 1013.46 1012.68 1012.08 1011.75 1011.72 1011.96 1012.42 1012.99 1013.58 1014.09 1014.47 1014.73 1014.91 1015.06 1015.24 1015.50 1015.87 1016.33 1016.83 1017.33 1017.79 1018.17 1018.47 1018.71 1018.93 1019.17 1019.46 1019.79 1020.16 1020.53 1020.86 1021.12 1021.28 1021.35 1021.34 1021.30 1021.25 1021.23 1021.25 1021.30 1021.37 1021.43 1021.49
1015.13 1015.34 1015.24 1014.85 1014.21 1013.43 1012.65 1011.98 1011.53 1011.38 1011.52 1011.90 1012.44 1013.03 1013.60 1014.06 1014.39 1014.60 1014.76 1014.92 1015.13 1015.45 1015.86 1016.34 1016.85 1017.34 1017.75 1018.09 1018.35 1018.57 1018.79 1019.06 1019.40 1019.80 1020.23 1020.65 1021.02 1021.30 1021.47 1021.53 1021.51 1021.45 1021.40 1021.37 1021.37 1021.42 1021.48 1021.53 1021.57
1014.87 1014.92 1014.67 1014.15 1013.44 1012.66 1011.94 1011.38 1011.08 1011.07 1011.33 1011.80 1012.37 1012.96 1013.48 1013.88 1014.15 1014.32 1014.46 1014.64 1014.89 1015.24 1015.70 1016.21 1016.74 1017.22 1017.62 1017.94 1018.19 1018.41 1018.66 1018.97 1019.36 1019.81 1020.29 1020.76 1021.15 1021.44 1021.61 1021.66 1021.63 1021.57 1021.50 1021.47 1021.47 1021.51 1021.57 1021.61 1021.62
1014.57 1014.51 1014.16 1013.57 1012.84 1012.09 1011.44 1010.97 1010.78 1010.86 1011.18 1011.67 1012.23 1012.77 1013.22 1013.55 1013.76 1013.90 1014.02 1014.21 1014.49 1014.89 1015.38 1015.93 1016.48 1016.97 1017.39 1017.72 1017.99 1018.25 1018.53 1018.89 1019.32 1019.82 1020.33 1020.81 1021.22 1021.51 1021.66 1021.71 1021.67 1021.61 1021.55 1021.52 1021.54 1021.58 1021.63 1021.67 1021.67
1014.28 1014.16 1013.77 1013.18 1012.48 1011.78 1011.20 1010.81 1010.67 1010.79 1011.11 1011.57 1012.06 1012.51 1012.87 1013.11 1013.25 1013.35 1013.47 1013.66 1013.96 1014.39 1014.91 1015.49 1016.07 1016.60 1017.05 1017.43 1017.75 1018.06 1018.40 1018.80 1019.27 1019.78 1020.31 1020.79 1021.18 1021.45 1021.60 1021.64 1021.61 1021.56 1021.53 1021.53 1021.57 1021.63 1021.70 1021.74 1021.74
1014.03 1013.90 1013.53 1012.99 1012.36 1011.74 1011.23 1010.90 1010.78 1010.88 1011.13 1011.49 1011.87 1012.21 1012.45 1012.60 1012.68 1012.73 1012.83 1013.02 1013.33 1013.77 1014.32 1014.92 1015.53 1016.11 1016.62 1017.06 1017.45 1017.83 1018.23 1018.68 1019.17 1019.68 1020.19 1020.64 1021.01 1021.26 1021.40 1021.45 1021.45 1021.44 1021.45 1021.50 1021.59 1021.69 1021.79 1021.85 1021.86
1013.79 1013.70 1013.40 1012.95 1012.43 1011.91 1011.48 1011.18 1011.05 1011.08 1011.23 1011.46 1011.69 1011.88 1012.01 1012.06 1012.07 1012.08 1012.15 1012.32 1012.62 1013.06 1013.61 1014.23 1014.88 1015.50 1016.08 1016.60 1017.09 1017.55 1018.01 1018.49 1018.99 1019.49 1019.96 1020.38 1020.70 1020.94 1021.08 1021.16 1021.20 1021.26 1021.34 1021.46 1021.61 1021.78 1021.92 1022.02 1022.05
1013.54 1013.49 1013.29 1012.96 1012.57 1012.17 1011.82 1011.55 1011.38 1011.33 1011.35 1011.42 1011.49 1011.54 1011.55 1011.51 1011.45 1011.42 1011.45 1011.60 1011.87 1012.29 1012.82 1013.45 1014.12 1014.80 1015.45 1016.06 1016.64 1017.19 1017.71 1018.23 1018.73 1019.21 1019.64 1020.01 1020.30 1020.53 1020.68 1020.81 1020.92 1021.06 1021.23 1021.44 1021.67 1021.90 1022.09 1022.23 1022.30
1013.23 1013.23 1013.13 1012.94 1012.69 1012.41 1012.14 1011.89 1011.68 1011.53 1011.41 1011.33 1011.25 1011.16 1011.05 1010.93 1010.82 1010.75 1010.75 1010.85 1011.09 1011.47 1011.98 1012.59 1013.28 1014.01 1014.74 1015.45 1016.12 1016.75 1017.34 1017.89 1018.39 1018.85 1019.24 1019.57 1019.85 1020.07 1020.26 1020.45 1020.64 1020.87 1021.14 1021.43 1021.74 1022.04 1022.29 1022.48 1022.59
1012.82 1012.87 1012.87 1012.81 1012.71 1012.55 1012.34 1012.11 1011.86 1011.60 1011.35 1011.12 1010.89 1010.69 1010.49 1010.31 1010.15 1010.05 1010.02 1010.09 1010.29 1010.62 1011.09 1011.69 1012.39 1013.16 1013.96 1014.76 1015.53 1016.25 1016.91 1017.49 1018.00 1018.44 1018.81 1019.12 1019.39 1019.63 1019.87 1020.12 1020.40 1020.72 1021.08 1021.45 1021.83 1022.18 1022.48 1022.71 1022.86
1012.33 1012.43 1012.52 1012.59 1012.61 1012.56 1012.41 1012.17 1011.86 1011.50 1011.12 1010.74 1010.40 1010.09 1009.82 1009.60 1009.43 1009.31 1009.26 1009.31 1009.46 1009.75 1010.18 1010.76 1011.47 1012.27 1013.14 1014.02 1014.89 1015.69 1016.42 1017.05 1017.57 1018.01 1018.37 1018.68 1018.96 1019.24 1019.53 1019.85 1020.22 1020.62 1021.04 1021.47 1021.89 1022.28 1022.62 1022.89 1023.09
1011.80 1011.95 1012.14 1012.33 1012.45 1012.47 1012.36 1012.09 1011.71 1011.23 1010.71 1010.20 1009.74 1009.35 1009.04 1008.80 1008.63 1008.52 1008.48 1008.51 1008.64 1008.89 1009.29 1009.85 1010.55 1011.39 1012.31 1013.27 1014.22 1015.11 1015.90 1016.58 1017.14 1017.59 1017.96 1018.29 1018.59 1018.91 1019.26 1019.65 1020.09 1020.54 1021.01 1021.48 1021.92 1022.32 1022.68 1022.98 1023.22
1011.28 1011.51 1011.80 1012.09 1012.30 1012.37 1012.25 1011.93 1011.43 1010.81 1010.15 1009.51 1008.94 1008.48 1008.14 1007.91 1007.77 1007.70 1007.68 1007.73 1007.85 1008.08 1008.45 1008.99 1009.69 1010.55 1011.51 1012.53 1013.55 1014.51 1015.37 1016.10 1016.70 1017.18 1017.58 1017.93 1018.28 1018.65 1019.06 1019.51 1019.99 1020.48 1020.98 1021.45 1021.89 1022.29 1022.64 1022.96 1023.25
1010.82 1011.16 1011.57 1011.97 1012.24 1012.33 1012.16 1011.74 1011.11 1010.33 1009.50 1008.72 1008.04 1007.53 1007.18 1006.98 1006.89 1006.88 1006.92 1007.00 1007.14 1007.37 1007.73 1008.24 1008.94 1009.80 1010.78 1011.84 1012.91 1013.93 1014.84 1015.62 1016.25 1016.78 1017.22 1017.62 1018.01 1018.43 1018.89 1019.39 1019.90 1020.42 1020.91 1021.37 1021.79 1022.17 1022.52 1022.85 1023.17
1010.43 1010.93 1011.48 1011.97 1012.30 1012.37 1012.13 1011.59 1010.78 1009.82 1008.82 1007.89 1007.12 1006.56 1006.21 1006.06 1006.05 1006.12 1006.24 1006.38 1006.56 1006.80 1007.15 1007.65 1008.33 1009.17 1010.15 1011.22 1012.31 1013.36 1014.30 1015.12 1015.80 1016.37 1016.85 1017.30 1017.75 1018.22 1018.73 1019.26 1019.81 1020.33 1020.82 1021.26 1021.65 1022.01 1022.34 1022.68 1023.03
1010.07 1010.76 1011.47 1012.07 1012.43 1012.48 1012.14 1011.45 1010.48 1009.33 1008.15 1007.09 1006.23 1005.64 1005.32 1005.23 1005.31 1005.49 1005.71 1005.94 1006.17 1006.43 1006.78 1007.25 1007.88 1008.69 1009.64 1010.68 1011.76 1012.81 1013.77 1014.62 1015.33 1015.93 1016.46 1016.96 1017.46 1017.98 1018.53 1019.11 1019.68 1020.21 1020.70 1021.12 1021.49 1021.82 1022.15 1022.49 1022.86
1009.66 1010.56 1011.43 1012.13 1012.53 1012.54 1012.12 1011.29 1010.15 1008.84 1007.52 1006.34 1005.43 1004.83 1004.56 1004.55 1004.75 1005.05 1005.38 1005.69 1005.98 1006.27 1006.61 1007.04 1007.62 1008.36 1009.25 1010.24 1011.27 1012.30 1013.25 1014.09 1014.83 1015.46 1016.03 1016.57 1017.12 1017.69 1018.29 1018.90 1019.50 1020.05 1020.55 1020.97 1021.33 1021.65 1021.97 1022.31 1022.69
1009.12 1010.20 1011.22 1012.02 1012.46 1012.45 1011.95 1011.02 1009.75 1008.32 1006.91 1005.67 1004.74 1004.17 1003.97 1004.07 1004.38 1004.81 1005.25 1005.65 1006.00 1006.31 1006.63 1007.01 1007.52 1008.18 1008.97 1009.88 1010.84 1011.81 1012.73 1013.56 1014.30 1014.95 1015.56 1016.14 1016.73 1017.35 1017.99 1018.64 1019.28 1019.86 1020.37 1020.81 1021.18 1021.51 1021.82 1022.16 1022.54
1008.38 1009.60 1010.73 1011.60 1012.07 1012.06 1011.53 1010.54 1009.22 1007.74 1006.30 1005.07 1004.18 1003.68 1003.56 1003.77 1004.21 1004.76 1005.30 1005.78 1006.17 1006.49 1006.79 1007.12 1007.55 1008.10 1008.79 1009.59 1010.47 1011.36 1012.23 1013.04 1013.76 1014.43 1015.05 1015.66 1016.29 1016.95 1017.63 1018.33 1019.00 1019.62 1020.17 1020.64 1021.03 1021.37 1021.69 1022.03 1022.40
1007.39 1008.69 1009.88 1010.80 1011.30 1011.30 1010.79 1009.82 1008.52 1007.08 1005.69 1004.53 1003.73 1003.33 1003.33 1003.66 1004.21 1004.85 1005.48 1006.02 1006.45 1006.76 1007.03 1007.29 1007.63 1008.09 1008.66 1009.36 1010.14 1010.95 1011.76 1012.53 1013.24 1013.90 1014.54 1015.17 1015.82 1016.51 1017.23 1017.95 1018.66 1019.33 1019.92 1020.42 1020.85 1021.22 1021.55 1021.88 1022.24
1006.21 1007.49 1008.68 1009.61 1010.14 1010.19 1009.73 1008.84 1007.64 1006.32 1005.06 1004.04 1003.37 1003.11 1003.22 1003.66 1004.30 1005.02 1005.70 1006.28 1006.71 1007.02 1007.25 1007.46 1007.72 1008.08 1008.56 1009.16 1009.85 1010.59 1011.34 1012.07 1012.76 1013.41 1014.05 1014.69 1015.36 1016.06 1016.79 1017.54 1018.27 1018.97 1019.60 1020.15 1020.61 1021.01 1021.36 1021.69 1022.02
1004.89 1006.08 1007.22 1008.13 1008.67 1008.77 1008.41 1007.66 1006.63 1005.50 1004.44 1003.60 1003.09 1002.96 1003.19 1003.71 1004.40 1005.16 1005.86 1006.44 1006.88 1007.17 1007.37 1007.54 1007.74 1008.04 1008.45 1008.97 1009.59 1010.27 1010.97 1011.66 1012.33 1012.98 1013.61 1014.24 1014.90 1015.60 1016.33 1017.08 1017.83 1018.54 1019.20 1019.78 1020.28 1020.70 1021.07 1021.40 1021.72
1003.56 1004.60 1005.62 1006.48 1007.02 1007.19 1006.96 1006.38 1005.57 1004.66 1003.82 1003.19 1002.85 1002.85 1003.16 1003.72 1004.43 1005.18 1005.87 1006.44 1006.86 1007.14 1007.33 1007.48 1007.66 1007.92 1008.29 1008.77 1009.34 1009.98 1010.65 1011.32 1011.97 1012.59 1013.21 1013.84 1014.48 1015.15 1015.86 1016.60 1017.33 1018.04 1018.71 1019.31 1019.83 1020.29 1020.67 1021.01 1021.32
Thickness
5741 5742 5740 5730 5710 5693 5696 5713 5728 5737 5744 5753 5755 5750 5743 5740 5738 5735 5745 5748 5747 5743 5741 5738 5736 5733 5731 5729 5727 5725 5724 5722 5721 5719 5718 5716 5715 5713 5712 5710 5709 5707 5706 5705 5703 5702 5701 5699 5698
5740 5740 5731 5717 5695 5684 5695 5717 5728 5739 5748 5752 5752 5748 5742 5740 5745 5743 5744 5746 5746 5742 5739 5737 5734 5731 5729 5727 5725 5723 5721 5719 5717 5716 5714 5712 5711 5709 5708 5706 5704 5702 5700 5699 5697 5696 5695 5694 5692
5739 5737 5720 5704 5693 5689 5705 5724 5731 5744 5751 5755 5748 5747 5744 5740 5744 5744 5748 5747 5744 5740 5738 5735 5732 5730 5727 5725 5723 5721 5719 5716 5714 5712 5710 5708 5707 5705 5703 5701 5699 5697 5695 5694 5692 5691 5689 5688 5687
5733 5723 5712 5698 5697 5707 5719 5728 5736 5740 5748 5752 5745 5738 5742 5750 5749 5750 5749 5746 5742 5738 5736 5733 5731 5728 5726 5723 5720 5718 5716 5713 5711 5709 5706 5704 5702 5700 5697 5695 5693 5691 5690 5688 5687 5685 5684 5682 5681
5725 5711 5700 5692 5701 5716 5727 5735 5738 5739 5742 5746 5742 5734 5738 5747 5752 5750 5747 5744 5740 5736 5734 5731 5729 5726 5724 5721 5718 5716 5713 5710 5707 5705 5702 5700 5697 5695 5692 5690 5688 5686 5684 5683 5681 5680 5678 5676 5675
5710 5701 5688 5687 5702 5720 5730 5739 5740 5740 5741 5743 5739 5731 5735 5744 5746 5746 5745 5743 5740 5736 5732 5730 5727 5724 5721 5719 5716 5713 5710 5707 5704 5701 5698 5696 5693 5690 5688 5685 5683 5681 5679 5678 5676 5674 5672 5671 5670
5703 5694 5690 5696 5702 5714 5731 5740 5738 5738 5738 5741 5742 5728 5730 5737 5742 5743 5741 5739 5736 5733 5730 5728 5725 5722 5719 5716 5713 5710 5707 5704 5700 5697 5694 5691 5688 5686 5683 5681 5678 5676 5674 5673 5671 5669 5667 5665 5664
5709 5696 5694 5696 5703 5714 5735 5742 5745 5742 5742 5748 5745 5730 5727 5737 5739 5738 5735 5732 5731 5729 5728 5725 5723 5720 5717 5713 5710 5707 5704 5701 5697 5694 5690 5687 5684 5682 5679 5676 5674 5672 5670 5668 5666 5664 5662 5660 5658
5710 5689 5686 5699 5706 5718 5734 5738 5744 5751 5747 5745 5745 5744 5748 5745 5738 5733 5728 5725 5725 5725 5725 5723 5721 5718 5714 5711 5707 5704 5701 5697 5694 5690 5686 5683 5680 5677 5674 5671 5669 5667 5665 5663 5660 5658 5656 5654 5653
5697 5682 5694 5712 5718 5722 5731 5735 5739 5741 5738 5737 5738 5741 5745 5741 5737 5733 5729 5726 5725 5724 5723 5722 5719 5716 5712 5709 5705 5701 5698 5694 5690 5687 5683 5679 5676 5672 5670 5667 5664 5662 5660 5657 5655 5653 5650 5648 5647
5696 5691 5703 5713 5722 5725 5728 5731 5738 5733 5730 5735 5736 5735 5736 5736 5734 5734 5733 5732 5731 5728 5724 5721 5718 5714 5710 5707 5703 5699 5695 5691 5687 5683 5679 5675 5671 5668 5665 5662 5660 5657 5655 5652 5649 5647 5645 5642 5640
5693 5699 5706 5712 5720 5722 5723 5728 5730 5732 5735 5744 5744 5741 5736 5733 5734 5735 5734 5733 5730 5726 5724 5721 5718 5713 5709 5705 5701 5696 5692 5688 5684 5680 5676 5671 5667 5664 5660 5657 5655 5652 5649 5646 5644 5641 5639 5636 5633
5688 5695 5705 5711 5715 5718 5721 5722 5725 5729 5738 5740 5740 5735 5733 5734 5735 5737 5737 5734 5730 5727 5725 5722 5718 5713 5708 5703 5699 5694 5690 5685 5681 5677 5672 5668 5664 5660 5656 5653 5649 5647 5644 5641 5638 5635 5632 5629 5627
5688 5692 5698 5704 5708 5713 5713 5716 5719 5727 5734 5733 5732 5730 5732 5733 5734 5733 5731 5730 5729 5728 5726 5723 5719 5714 5708 5703 5698 5693 5688 5683 5678 5674 5669 5665 5661 5656 5652 5648 5644 5641 5638 5635 5632 5628 5625 5622 5619
5685 5683 5687 5695 5701 5706 5706 5702 5712 5725 5727 5726 5727 5727 5729 5732 5733 5734 5735 5735 5734 5731 5728 5724 5720 5714 5709 5703 5697 5692 5686 5681 5675 5670 5666 5661 5657 5652 5648 5643 5639 5636 5632 5629 5625 5621 5618 5615 5612
5673 5668 5667 5685 5694 5698 5692 5688 5710 5720 5719 5719 5722 5723 5726 5730 5733 5736 5738 5738 5736 5732 5728 5724 5720 5713 5708 5703 5696 5690 5684 5678 5673 5668 5663 5658 5653 5648 5643 5638 5634 5630 5626 5622 5618 5614 5610 5606 5602
5651 5648 5656 5671 5688 5689 5685 5687 5707 5716 5715 5716 5718 5721 5724 5728 5732 5735 5737 5738 5737 5734 5729 5723 5719 5713 5706 5700 5694 5688 5681 5675 5670 5664 5659 5654 5648 5643 5639 5633 5629 5624 5620 5615 5611 5606 5602 5597 5594
5639 5643 5653 5660 5679 5679 5677 5684 5700 5708 5710 5712 5715 5718 5721 5725 5733 5737 5738 5738 5737 5734 5730 5724 5718 5711 5703 5695 5688 5682 5676 5671 5666 5660 5655 5649 5644 5639 5633 5628 5623 5618 5613 5608 5603 5598 5593 5589 5585
5645 5645 5648 5661 5676 5672 5671 5679 5693 5702 5703 5707 5711 5714 5718 5726 5734 5737 5737 5735 5733 5730 5726 5721 5714 5707 5699 5691 5684 5678 5672 5666 5661 5656 5650 5645 5639 5634 5628 5622 5616 5611 5606 5601 5596 5591 5585 5580 5576
5636 5636 5642 5654 5668 5666 5665 5672 5687 5697 5702 5710 5714 5716 5719 5724 5728 5732 5732 5730 5729 5727 5724 5718 5712 5705 5699 5692 5685 5677 5669 5662 5656 5651 5645 5639 5634 5629 5623 5617 5611 5605 5599 5593 5588 5583 5577 5571 5567
5629 5632 5638 5644 5655 5660 5659 5662 5678 5694 5702 5709 5714 5718 5721 5723 5725 5727 5726 5725 5723 5721 5719 5716 5709 5703 5696 5688 5679 5669 5660 5653 5648 5643 5638 5634 5629 5623 5618 5612 5605 5599 5593 5587 5581 5576 5570 5563 5557
5625 5640 5639 5639 5635 5633 5644 5637 5665 5681 5692 5703 5709 5713 5717 5721 5722 5722 5722 5720 5718 5717 5714 5711 5704 5698 5691 5683 5675 5667 5659 5652 5646 5640 5633 5628 5623 5618 5612 5606 5600 5593 5587 5581 5576 5570 5564 5557 5550
5630 5639 5634 5633 5627 5623 5630 5628 5654 5673 5682 5696 5704 5709 5713 5716 5717 5717 5717 5715 5713 5709 5706 5702 5697 5691 5685 5678 5672 5664 5656 5648 5640 5634 5627 5621 5616 5611 5606 5600 5594 5587 5581 5575 5570 5563 5558 5552 5545
5628 5624 5619 5612 5609 5606 5623 5619 5641 5664 5683 5694 5700 5704 5707 5709 5709 5710 5709 5707 5703 5700 5697 5693 5689 5684 5678 5672 5666 5659 5651 5642 5634 5627 5621 5615 5609 5604 5599 5593 5588 5582 5576 5569 5563 5558 5551 5545 5539
5616 5605 5593 5590 5587 5600 5621 5620 5643 5674 5688 5693 5697 5699 5700 5700 5699 5699 5698 5696 5693 5690 5688 5685 5681 5676 5671 5665 5660 5654 5647 5639 5632 5625 5617 5610 5603 5597 5593 5587 5582 5576 5570 5564 5557 5551 5545 5539 5532
5612 5611 5595 5589 5588 5601 5615 5618 5651 5678 5688 5691 5694 5694 5692 5691 5690 5691 5690 5687 5685 5682 5679 5677 5673 5669 5664 5659 5653 5647 5641 5634 5627 5621 5614 5607 5601 5595 5589 5583 5576 5571 5564 5558 5551 5544 5538 5532 5525
5605 5606 5611 5598 5594 5596 5605 5625 5650 5672 5677 5680 5681 5682 5682 5683 5683 5682 5681 5678 5676 5674 5671 5669 5666 5661 5656 5652 5646 5640 5634 5628 5622 5615 5609 5603 5596 5589 5583 5577 5571 5564 5558 5551 5544 5537 5531 5525 5518
5614 5609 5597 5590 5582 5585 5601 5617 5638 5659 5664 5670 5671 5673 5675 5676 5675 5674 5672 5670 5668 5666 5663 5660 5658 5654 5649 5644 5639 5634 5628 5623 5617 5610 5603 5597 5590 5584 5577 5570 5564 5558 5551 5545 5538 5531 5524 5517 5511
5601 5600 5601 5593 5587 5586 5589 5616 5653 5662 5666 5666 5667 5669 5670 5669 5668 5667 5665 5662 5660 5657 5654 5651 5648 5645 5641 5637 5632 5627 5621 5616 5610 5604 5598 5591 5585 5578 5571 5565 5558 5551 5544 5538 5531 5524 5517 5510 5503
5608 5606 5601 5592 5587 5591 5592 5619 5660 5662 5666 5666 5664 5665 5665 5665 5663 5661 5658 5654 5651 5649 5646 5644 5641 5638 5634 5630 5625 5620 5614 5609 5603 5598 5592 5585 5579 5572 5566 5559 5552 5545 5538 5531 5524 5517 5510 5503 5496